Location: Newark
(45.2633°N, 19.8417°E)
Time: 08:15:37
(UTC+00:00)

STARLINK-2647 - Pass Details

Date: 24 June 2021
Orbit: 546 x 548 km, 53.1° (Epoch: 25 July)

Event Time Altitude Azimuth Distance (km) Brightness Sun altitude
Exits shadow 00:30:16 10° 140° (SE) 1,785 6.0 -17.1°
Drops below altitude 10° 00:32:27 10° 109° (ESE) 1,815 6.3 -16.9°
Enters shadow 01:30:21 -71° 237° (WSW) 12,630 10.4 -11.5°
Maximum altitude 02:10:04 65° 143° (SE) 603 3.8 -6.8°
